• In Kazakhstan
  • List of Countries
  • For 7 days
  • Water Temperature
  • Weather Map
  • News
  • Weather Widgets
  • user-avatar
    Login

    Hourly Weather Hobart

    Today, 30 May, Saturday

    Time Temperature Precipitation Wind Pressure Humidity
    00:00 +8°C° 0 mm 3 mps 751 mmHg 82%
    01:00 +8°C° 0 mm 3 mps 750 mmHg 82%
    02:00 +8°C° 0 mm 3 mps 750 mmHg 83%
    03:00 +8°C° 0 mm 3 mps 750 mmHg 84%
    04:00 +7°C° 0 mm 3 mps 750 mmHg 84%
    05:00 +7°C° 0 mm 3 mps 750 mmHg 86%
    06:00 +7°C° 0 mm 3 mps 749 mmHg 88%
    07:00 +7°C° 0 mm 3 mps 749 mmHg 90%
    08:00 +8°C° 0 mm 3 mps 749 mmHg 82%
    09:00 +10°C° 0 mm 3 mps 749 mmHg 73%
    10:00 +12°C° 0 mm 4 mps 749 mmHg 62%
    11:00 +13°C° 0 mm 4 mps 748 mmHg 58%
    12:00 +14°C° 0 mm 5 mps 748 mmHg 55%
    13:00 +15°C° 0 mm 5 mps 747 mmHg 51%
    14:00 +14°C° 0 mm 5 mps 746 mmHg 55%
    15:00 +14°C° 0 mm 5 mps 745 mmHg 59%
    16:00 +13°C° 0 mm 5 mps 745 mmHg 63%
    17:00 +12°C° 0 mm 5 mps 744 mmHg 66%
    18:00 +10°C° 0 mm 5 mps 743 mmHg 70%
    19:00 +9°C° 0 mm 5 mps 743 mmHg 74%
    20:00 +9°C° 0 mm 5 mps 743 mmHg 73%
    21:00 +9°C° 0 mm 5 mps 742 mmHg 71%
    22:00 +8°C° 0 mm 5 mps 742 mmHg 70%
    23:00 +9°C° 0 mm 5 mps 741 mmHg 69%

    Tomorrow, 31 May, Sunday

    Time Temperature Precipitation Wind Pressure Humidity
    00:00 +11°C° 0 mm 4 mps 741 mmHg 68%
    01:00 +11°C° 0 mm 4 mps 740 mmHg 67%
    02:00 +10°C° 0 mm 3 mps 740 mmHg 72%
    03:00 +10°C° 0 mm 2 mps 740 mmHg 76%
    04:00 +9°C° 0 mm 2 mps 739 mmHg 81%
    05:00 +10°C° 0 mm 1 mps 740 mmHg 82%
    06:00 +10°C° 0 mm 1 mps 740 mmHg 84%
    07:00 +9°C° 0 mm 1 mps 740 mmHg 85%
    08:00 +10°C° 0 mm 2 mps 741 mmHg 79%
    09:00 +12°C° 0 mm 2 mps 741 mmHg 73%
    10:00 +12°C° 0 mm 3 mps 741 mmHg 66%
    11:00 +12°C° 0 mm 3 mps 741 mmHg 62%
    12:00 +13°C° 0 mm 3 mps 740 mmHg 58%
    13:00 +13°C° 0 mm 3 mps 740 mmHg 53%
    14:00 +13°C° 0 mm 3 mps 740 mmHg 56%
    15:00 +13°C° 0 mm 2 mps 740 mmHg 58%
    16:00 +13°C° 0 mm 2 mps 740 mmHg 61%
    17:00 +10°C° 0 mm 2 mps 740 mmHg 66%
    18:00 +9°C° 0 mm 2 mps 740 mmHg 72%
    19:00 +7°C° 0 mm 2 mps 740 mmHg 78%
    20:00 +7°C° 0 mm 2 mps 739 mmHg 78%
    21:00 +7°C° 0 mm 2 mps 739 mmHg 79%
    22:00 +7°C° 0 mm 3 mps 739 mmHg 80%
    23:00 +7°C° 0 mm 3 mps 739 mmHg 79%

    Day after tomorrow, 1 June, Monday

    Time Temperature Precipitation Wind Pressure Humidity
    00:00 +7°C° 0 mm 2 mps 738 mmHg 78%
    01:00 +7°C° 0 mm 2 mps 738 mmHg 78%
    02:00 +7°C° 0 mm 2 mps 737 mmHg 79%
    03:00 +7°C° 0 mm 2 mps 737 mmHg 80%
    04:00 +7°C° 0 mm 2 mps 736 mmHg 81%
    05:00 +6°C° 0 mm 2 mps 737 mmHg 84%
    06:00 +6°C° 0 mm 2 mps 737 mmHg 86%
    07:00 +6°C° 0 mm 2 mps 737 mmHg 89%
    08:00 +7°C° 0 mm 2 mps 737 mmHg 82%
    09:00 +9°C° 0 mm 2 mps 737 mmHg 76%
    10:00 +10°C° 0 mm 2 mps 738 mmHg 69%
    11:00 +12°C° 0 mm 2 mps 738 mmHg 65%
    12:00 +13°C° 0 mm 2 mps 738 mmHg 60%
    13:00 +15°C° 0 mm 2 mps 738 mmHg 56%
    14:00 +12°C° 0.1 mm 3 mps 739 mmHg 68%
    15:00 +10°C° 0.1 mm 3 mps 739 mmHg 79%
    16:00 +8°C° 0.1 mm 4 mps 740 mmHg 90%
    17:00 +7°C° 0.2 mm 4 mps 741 mmHg 90%
    18:00 +8°C° 0.2 mm 3 mps 742 mmHg 91%
    19:00 +7°C° 0.2 mm 3 mps 743 mmHg 91%
    20:00 +5°C° 0 mm 3 mps 743 mmHg 91%
    21:00 +6°C° 0 mm 2 mps 744 mmHg 92%
    22:00 +5°C° 0 mm 2 mps 744 mmHg 92%
    23:00 +4°C° 0 mm 2 mps 744 mmHg 91%

    2 June, Tuesday

    Time Temperature Precipitation Wind Pressure Humidity
    00:00 +4°C° 0 mm 2 mps 745 mmHg 90%
    01:00 +3°C° 0 mm 2 mps 745 mmHg 88%
    02:00 +3°C° 0 mm 3 mps 745 mmHg 88%
    03:00 +3°C° 0 mm 3 mps 744 mmHg 88%
    04:00 +3°C° 0 mm 3 mps 744 mmHg 87%
    05:00 +3°C° 0 mm 3 mps 745 mmHg 88%
    06:00 +4°C° 0 mm 3 mps 745 mmHg 88%
    07:00 +5°C° 0 mm 2 mps 745 mmHg 89%
    08:00 +7°C° 0 mm 3 mps 745 mmHg 84%
    09:00 +9°C° 0 mm 3 mps 745 mmHg 80%
    10:00 +10°C° 0 mm 3 mps 746 mmHg 76%
    11:00 +11°C° 0 mm 4 mps 745 mmHg 73%
    12:00 +12°C° 0 mm 4 mps 745 mmHg 71%
    13:00 +12°C° 0 mm 5 mps 745 mmHg 68%
    14:00 +12°C° 0 mm 5 mps 745 mmHg 69%
    15:00 +12°C° 0 mm 5 mps 745 mmHg 70%
    16:00 +10°C° 0 mm 5 mps 744 mmHg 71%
    17:00 +10°C° 0 mm 5 mps 745 mmHg 70%
    18:00 +9°C° 0 mm 6 mps 745 mmHg 69%
    19:00 +9°C° 0 mm 6 mps 746 mmHg 68%
    20:00 +8°C° 0 mm 6 mps 746 mmHg 68%
    21:00 +8°C° 0 mm 6 mps 746 mmHg 68%
    22:00 +6°C° 0 mm 7 mps 747 mmHg 68%
    23:00 +6°C° 0 mm 7 mps 747 mmHg 68%

    3 June, Wednesday

    Time Temperature Precipitation Wind Pressure Humidity
    00:00 +6°C° 0 mm 7 mps 747 mmHg 68%
    01:00 +5°C° 0 mm 7 mps 748 mmHg 68%
    02:00 +5°C° 0 mm 6 mps 748 mmHg 68%
    03:00 +5°C° 0 mm 6 mps 749 mmHg 69%
    04:00 +5°C° 0 mm 6 mps 749 mmHg 69%
    05:00 +5°C° 0 mm 6 mps 750 mmHg 70%
    06:00 +4°C° 0 mm 6 mps 750 mmHg 72%
    07:00 +4°C° 0 mm 6 mps 751 mmHg 73%
    08:00 +5°C° 0 mm 6 mps 751 mmHg 70%
    09:00 +7°C° 0 mm 6 mps 752 mmHg 66%
    10:00 +8°C° 0 mm 6 mps 753 mmHg 63%
    11:00 +8°C° 0 mm 6 mps 753 mmHg 60%
    12:00 +9°C° 0 mm 5 mps 753 mmHg 57%
    13:00 +9°C° 0 mm 5 mps 753 mmHg 54%
    14:00 +10°C° 0 mm 4 mps 754 mmHg 57%
    15:00 +8°C° 0 mm 4 mps 754 mmHg 59%
    16:00 +8°C° 0 mm 4 mps 754 mmHg 62%
    17:00 +7°C° 0 mm 4 mps 754 mmHg 68%
    18:00 +7°C° 0 mm 3 mps 755 mmHg 73%
    19:00 +4°C° 0 mm 3 mps 755 mmHg 79%
    20:00 +5°C° 0 mm 3 mps 756 mmHg 80%
    21:00 +5°C° 0 mm 3 mps 756 mmHg 81%
    22:00 +6°C° 0 mm 2 mps 756 mmHg 81%
    23:00 +5°C° 0 mm 2 mps 756 mmHg 84%

    4 June, Thursday

    Time Temperature Precipitation Wind Pressure Humidity
    00:00 +5°C° 0 mm 2 mps 756 mmHg 86%
    01:00 +5°C° 0 mm 2 mps 756 mmHg 89%
    02:00 +5°C° 0 mm 2 mps 756 mmHg 90%
    03:00 +5°C° 0 mm 2 mps 756 mmHg 91%
    04:00 +4°C° 0 mm 2 mps 756 mmHg 92%
    05:00 +4°C° 0 mm 2 mps 756 mmHg 92%
    06:00 +4°C° 0 mm 2 mps 756 mmHg 92%
    07:00 +4°C° 0 mm 2 mps 756 mmHg 92%
    08:00 +5°C° 0 mm 2 mps 756 mmHg 85%
    09:00 +7°C° 0 mm 2 mps 756 mmHg 78%
    10:00 +8°C° 0 mm 2 mps 756 mmHg 72%
    11:00 +9°C° 0 mm 2 mps 756 mmHg 68%
    12:00 +10°C° 0 mm 2 mps 756 mmHg 63%
    13:00 +12°C° 0 mm 2 mps 755 mmHg 59%
    14:00 +12°C° 0 mm 2 mps 755 mmHg 62%
    15:00 +11°C° 0 mm 1 mps 755 mmHg 64%
    16:00 +11°C° 0 mm 1 mps 755 mmHg 67%
    17:00 +10°C° 0 mm 1 mps 755 mmHg 71%
    18:00 +9°C° 0 mm 1 mps 755 mmHg 76%
    19:00 +9°C° 0 mm 1 mps 755 mmHg 80%
    20:00 +7°C° 0 mm 2 mps 755 mmHg 82%
    21:00 +7°C° 0 mm 2 mps 755 mmHg 83%
    22:00 +7°C° 0 mm 2 mps 755 mmHg 85%
    23:00 +7°C° 0 mm 2 mps 755 mmHg 85%
    Show more